Location: Barrio Las Umbrías
(40.4173°N, 4.8685°W)
Time: 12:41:42
(UTC+00:00)

Atlas Centaur 2 - Pass Details

Date: 17 August 2022
Orbit: 459 x 1302 km, 30.4° (Epoch: 27 September)

Event Time Altitude Azimuth Distance (km) Brightness Sun altitude
Rises 21:20:53 0° 243° (WSW) 4,278 6.1 -21.7°
Reaches altitude 10° 21:24:09 10° 236° (SW) 3,293 5.4 -22.2°
Maximum altitude 21:31:39 37° 173° (S) 1,792 3.5 -23.2°
Enters shadow 21:32:14 37° 164° (SSE) 1,793 3.4 -23.3°
